DLH8HY EKCH-EDDM

Flight info

Callsign DLH8HY
Flight time N/A
Altitude 39000
Route SALLO M44 KOGIM DCT MAREM/N0414F340 DCT VESUB T106 TUSTO T108 LANDU LANDU2A
Aircraft A319/M-SDE2E3FGIJ1LORWXYZ/HB1

Departure

Time 2026-05-01 15:22
Airport Copenhagen Kastrup Airport (EKCH)

Arrival

Time N/A
Airport Munich Airport (EDDM)
Time Latitude Longitude Altitude Speed Heading
2026-05-01 14:50 55.62895 12.63935 24 ft 0 kts 13°
2026-05-01 15:06 55.62888 12.63932 24 ft 4 kts 12°
2026-05-01 15:07 55.62872 12.63929 24 ft 4 kts 355°
2026-05-01 15:07 55.62859 12.63932 28 ft 3 kts 351°
2026-05-01 15:07 55.62845 12.63934 26 ft 4 kts 23°
2026-05-01 15:07 55.62836 12.63926 25 ft 4 kts 80°
2026-05-01 15:08 55.62837 12.63898 27 ft 4 kts 104°
2026-05-01 15:08 55.62839 12.63883 25 ft 0 kts 104°
2026-05-01 15:11 55.62838 12.63894 24 ft 2 kts 104°
2026-05-01 15:11 55.62830 12.63931 26 ft 6 kts 120°
2026-05-01 15:12 55.62779 12.63956 25 ft 10 kts 197°
2026-05-01 15:12 55.62688 12.63854 24 ft 1 kts 212°
2026-05-01 15:12 55.62684 12.63848 24 ft 0 kts 213°
2026-05-01 15:13 55.62611 12.63779 24 ft 4 kts 197°
2026-05-01 15:14 55.62521 12.63778 25 ft 12 kts 167°
2026-05-01 15:14 55.62442 12.63854 22 ft 12 kts 134°
2026-05-01 15:14 55.62359 12.64071 21 ft 9 kts 123°
2026-05-01 15:15 55.62303 12.64224 21 ft 4 kts 123°
2026-05-01 15:15 55.62287 12.64266 21 ft 3 kts 123°
2026-05-01 15:16 55.62214 12.64356 21 ft 12 kts 202°
2026-05-01 15:16 55.62042 12.64212 25 ft 16 kts 205°
2026-05-01 15:17 55.61919 12.64108 26 ft 6 kts 205°
2026-05-01 15:18 55.61827 12.64071 24 ft 2 kts 175°
2026-05-01 15:18 55.61800 12.64075 25 ft 4 kts 175°
2026-05-01 15:19 55.61748 12.64081 27 ft 0 kts 176°
2026-05-01 15:19 55.61747 12.64081 26 ft 0 kts 176°
2026-05-01 15:19 55.61731 12.64083 26 ft 5 kts 176°
2026-05-01 15:20 55.61647 12.64087 27 ft 5 kts 192°
2026-05-01 15:20 55.61616 12.64055 27 ft 5 kts 221°
2026-05-01 15:20 55.61612 12.64049 27 ft 0 kts 221°
2026-05-01 15:21 55.61612 12.64048 27 ft 0 kts 221°
2026-05-01 15:21 55.61587 12.64010 27 ft 17 kts 221°
2026-05-01 15:21 55.61258 12.63501 27 ft 105 kts 221°
2026-05-01 15:22 55.59605 12.60961 785 ft 174 kts 220°
2026-05-01 15:22 55.58681 12.59540 1525 ft 186 kts 222°
2026-05-01 15:22 55.57637 12.57937 1997 ft 214 kts 223°
2026-05-01 15:23 55.56407 12.56128 2485 ft 245 kts 215°
2026-05-01 15:23 55.54843 12.54730 3421 ft 256 kts 203°
2026-05-01 15:23 55.53140 12.53663 4489 ft 262 kts 199°
2026-05-01 15:23 55.51386 12.52668 5570 ft 266 kts 199°
2026-05-01 15:24 55.49573 12.52040 6646 ft 271 kts 183°
2026-05-01 15:24 55.47704 12.52716 7607 ft 281 kts 156°
2026-05-01 15:24 55.46121 12.54770 8691 ft 285 kts 140°
2026-05-01 15:24 55.44638 12.57117 9757 ft 289 kts 140°
2026-05-01 15:25 55.43130 12.59503 10669 ft 297 kts 141°
2026-05-01 15:25 55.41525 12.62026 11076 ft 322 kts 141°
2026-05-01 15:25 55.39803 12.64714 11639 ft 337 kts 141°
2026-05-01 15:25 55.38028 12.67482 12462 ft 344 kts 141°
2026-05-01 15:26 55.36224 12.70292 13325 ft 349 kts 141°
2026-05-01 15:26 55.34396 12.73138 14165 ft 354 kts 141°
2026-05-01 15:26 55.32542 12.76026 14927 ft 359 kts 140°
2026-05-01 15:26 55.30663 12.78948 15690 ft 363 kts 140°
2026-05-01 15:27 55.28762 12.81893 16419 ft 368 kts 140°
2026-05-01 15:27 55.26827 12.84881 17177 ft 372 kts 140°
2026-05-01 15:27 55.24874 12.87891 17938 ft 376 kts 139°
2026-05-01 15:28 55.20911 12.94007 19350 ft 384 kts 139°
2026-05-01 15:28 55.18901 12.97110 20021 ft 387 kts 139°
2026-05-01 15:28 55.16876 13.00228 20696 ft 390 kts 139°
2026-05-01 15:29 55.12760 13.06546 22037 ft 397 kts 139°
2026-05-01 15:29 55.10676 13.09735 22706 ft 400 kts 139°
2026-05-01 15:29 55.06451 13.16185 24000 ft 406 kts 139°
2026-05-01 15:30 55.02164 13.22713 25036 ft 412 kts 138°
2026-05-01 15:31 54.93180 13.35788 26905 ft 428 kts 148°
2026-05-01 15:31 54.87647 13.39659 27886 ft 434 kts 168°
2026-05-01 15:32 54.81636 13.41294 28822 ft 441 kts 171°
2026-05-01 15:32 54.75548 13.42927 29799 ft 445 kts 171°
2026-05-01 15:33 54.66304 13.45424 31019 ft 452 kts 171°
2026-05-01 15:34 54.56915 13.47941 32107 ft 458 kts 171°